Regional Weather Roundup
Issued by NWS

Home | Current Version | Previous Version | Graphics & Text | Print | Product List | Glossary On
Versions: 1 2 3 4 5 6 7 8 9 10 11 12 13 14 15 16 17 18 19 20 21 22 23 24 25 26 27
000
ASUS45 KBOI 201710
RWRID

IDAHO REGIONAL WEATHER ROUNDUP
NATIONAL WEATHER SERVICE BOISE ID
1100 AM MDT THU JUL 20 2017

NOTE: "FAIR" INDICATES FEW OR NO CLOUDS BELOW 12000 FEET
WITH NO SIGNIFICANT WEATHER AND/OR OBSTRUCTIONS TO VISIBILITY

IDZ012-014-201800-
SOUTHWEST IDAHO


CITY           SKY/WX    TMP DP  RH WIND       PRES   REMARKS
BOISE          SUNNY     79  44  28 NW9       30.05S
CALDWELL       SUNNY     81  48  31 NW9       30.04S
MOUNTAIN HOME  SUNNY     84  43  23 NW20G25   30.04S
$$

IDZ016-017-201800-
SOUTHCENTRAL IDAHO


CITY           SKY/WX    TMP DP  RH WIND       PRES   REMARKS
BURLEY           N/A     74  36  25 W9        30.08R
JEROME         MOSUNNY   75  38  26 SW13      30.09S
TWIN FALLS     MOSUNNY   80  39  23 W13       30.10R
$$

IDZ019>023-201800-
SOUTHEAST IDAHO


CITY           SKY/WX    TMP DP  RH WIND       PRES   REMARKS
IDAHO FALLS    PTSUNNY   81  55  40 SW6       30.12S
POCATELLO      MOSUNNY   85  41  21 W10       30.09F
REXBURG        PTSUNNY   77  56  48 CALM      30.13F
$$

IDZ006-010-011-018-031-032-201800-
CENTRAL IDAHO MOUNTAINS


CITY           SKY/WX    TMP DP  RH WIND       PRES   REMARKS
MCCALL         SUNNY     73  40  30 S5        30.12
HAILEY         MOSUNNY   73  43  33 CALM      30.16S
STANLEY          N/A     67  30  25 CALM      30.22F
SALMON         NOT AVBL
CHALLIS        SUNNY     72  30  21 VRB3      30.10F
$$

IDZ002-004-006-007-026-201800-
NORTHERN IDAHO


CITY           SKY/WX    TMP DP  RH WIND       PRES   REMARKS
LEWISTON       SUNNY     78  45  30 VRB6      30.03S
LOWELL           N/A     77  47  34 CALM      30.01F
COEUR D`ALENE  SUNNY     72  47  40 S12G21    30.05S
MULLAN PASS    SUNNY     59  40  49 VRB5      30.17R
$$




USA.gov is the U.S. government's official web portal to all federal, state and local government web resources and services.